GW2702 Weather Reports


time (UTC)temp
F
wind
direction
speed
knots
gust
knots
rain 1hr
in
rain 24hr
in
rain mn
in
humidity
%
barometer
mb
20260507065404 53 189 0.0 0.9 0.00 0.00 0.00 87
20260507064901 53 185 0.0 1.7 0.00 0.00 0.00 87
20260507064359 53 223 0.9 0.9 0.00 0.00 0.00 87
20260507063856 53 169 0.0 0.9 0.00 0.00 0.00 86
20260507063353 53 173 0.9 1.7 0.00 0.00 0.00 86
20260507062850 54 172 0.0 0.9 0.00 0.00 0.00 85
20260507062347 54 135 0.9 1.7 0.00 0.00 0.00 85
20260507061844 54 172 1.7 1.7 0.00 0.00 0.00 85
20260507061342 54 163 0.0 2.6 0.00 0.00 0.00 85
20260507060841 54 155 0.0 0.0 0.00 0.00 0.00 84
20260507060337 55 160 0.9 1.7 0.00 0.00 0.00 83
20260507055834 55 169 0.9 1.7 0.00 0.00 0.00 83
20260507055329 55 147 0.9 1.7 0.00 0.00 0.00 82
20260507054826 55 175 0.9 1.7 0.00 0.00 0.00 82
20260507054322 55 154 0.0 1.7 0.00 0.00 0.00 82
20260507053819 56 184 0.0 0.9 0.00 0.00 0.00 82
20260507053317 56 196 0.9 1.7 0.00 0.00 0.00 81
20260507052816 56 170 0.0 0.9 0.00 0.00 0.00 82
20260507052312 56 198 0.9 1.7 0.00 0.00 0.00 82
20260507051810 56 177 0.0 0.0 0.00 0.00 0.00 82
20260507051307 56 185 0.0 0.9 0.00 0.00 0.00 82
20260507050804 56 179 0.0 0.0 0.00 0.00 0.00 82
20260507050300 56 283 1.7 1.7 0.00 0.00 0.00 82
20260507045757 56 183 0.0 0.0 0.00 0.00 0.00 82
20260507045253 56 184 0.9 1.7 0.00 0.00 0.00 82
20260507044751 56 228 0.9 0.9 0.00 0.00 0.00 82
20260507044247 56 182 0.0 0.9 0.00 0.00 0.00 82
20260507043743 56 181 0.0 0.0 0.00 0.00 0.00 82
20260507043240 56 161 0.0 0.0 0.00 0.00 0.00 82
20260507042736 56 189 0.0 1.7 0.00 0.00 0.00 82
20260507042231 56 234 1.7 2.6 0.00 0.00 0.00 82
20260507041729 56 176 0.0 0.9 0.00 0.00 0.00 82
20260507041226 56 309 1.7 2.6 0.00 0.00 0.00 82
20260507040723 56 185 0.0 1.7 0.00 0.00 0.00 82
20260507040219 56 199 0.0 0.9 0.00 0.00 0.00 82
20260507035715 56 167 0.9 2.6 0.00 0.00 0.00 82
20260507035210 56 93 0.9 2.6 0.00 0.00 0.00 82
20260507034708 56 229 0.9 4.3 0.00 0.00 0.00 81
20260507034205 57 177 0.0 1.7 0.00 0.00 0.00 81
20260507033703 57 185 0.0 0.9 0.00 0.00 0.00 81
20260507033155 57 169 0.9 1.7 0.00 0.00 0.00 80
20260507032653 57 169 0.9 0.9 0.00 0.00 0.00 81
20260507032148 57 220 0.9 1.7 0.00 0.00 0.00 80
20260507031645 58 201 1.7 1.7 0.00 0.00 0.00 80
20260507031142 58 177 0.9 0.9 0.00 0.00 0.00 80
20260507030639 58 188 1.7 2.6 0.00 0.00 0.00 80
20260507030137 59 162 0.0 1.7 0.00 0.00 0.00 80
20260507025634 59 155 0.9 0.9 0.00 0.00 0.00 79
20260507025131 59 165 0.0 0.0 0.00 0.00 0.00 79
20260507024628 59 150 0.9 0.9 0.00 0.00 0.00 79
20260507024125 59 155 0.9 1.7 0.00 0.00 0.00 79
20260507023621 59 164 0.0 0.0 0.00 0.00 0.00 79
20260507023119 59 164 0.9 0.9 0.00 0.00 0.00 79
20260507022615 59 163 0.0 0.0 0.00 0.00 0.00 79
20260507022110 59 153 0.0 0.9 0.00 0.00 0.00 79
20260507021607 60 151 0.9 0.9 0.00 0.00 0.00 78
20260507021103 60 102 0.9 1.7 0.00 0.00 0.00 78
20260507020602 60 312 0.0 0.9 0.00 0.00 0.00 78
20260507020057 60 58 0.9 1.7 0.00 0.00 0.00 77
20260507015556 59 163 0.0 1.7 0.00 0.00 0.00 78
20260507015053 60 113 1.7 1.7 0.00 0.00 0.00 77
20260507014549 60 144 0.0 0.9 0.00 0.00 0.00 76
20260507014044 60 167 0.9 0.9 0.00 0.00 0.00 76
20260507013541 60 161 0.0 1.7 0.00 0.00 0.00 76
20260507013039 61 167 0.0 0.9 0.00 0.00 0.00 75
20260507012536 61 207 0.0 0.9 0.00 0.00 0.00 75
20260507012027 61 155 0.0 0.9 0.00 0.00 0.00 75
20260507011524 61 39 1.7 2.6 0.00 0.00 0.00 75
20260507011020 60 20 2.6 4.3 0.00 0.00 0.00 74
20260507010514 61 117 0.0 6.1 0.00 0.00 0.00 74
20260507010006 61 116 0.0 1.7 0.00 0.00 0.00 72
20260507005503 61 94 0.0 2.6 0.00 0.00 0.00 73
20260507004959 62 70 2.6 2.6 0.00 0.00 0.00 72
20260507004455 62 45 1.7 4.3 0.00 0.00 0.00 71
20260507003948 62 105 1.7 1.7 0.00 0.00 0.00 71
20260507003443 63 182 0.0 0.9 0.00 0.00 0.00 71
20260507002938 62 98 0.9 2.6 0.00 0.00 0.00 71
20260507002434 64 154 0.0 0.9 0.00 0.00 0.00 69
20260507001931 64 194 0.0 0.9 0.00 0.00 0.00 68
20260507001427 64 122 0.0 0.9 0.00 0.00 0.00 68
20260507000925 64 42 0.9 1.7 0.00 0.00 0.00 69
20260507000420 63 131 0.9 2.6 0.00 0.00 0.00 70
20260506235911 64 57 0.9 1.7 0.00 0.00 0.00 69
20260506235409 64 116 0.0 4.3 0.00 0.00 0.00 70
20260506234904 65 6 0.9 2.6 0.00 0.00 0.00 69
20260506234403 65 48 0.9 4.3 0.00 0.00 0.00 68
20260506233900 63 69 0.9 0.9 0.00 0.00 0.00 69
20260506233355 62 176 0.0 0.9 0.00 0.00 0.00 71
20260506232852 62 42 0.9 1.7 0.00 0.00 0.00 71
20260506232348 64 205 0.9 1.7 0.00 0.00 0.00 71
20260506231845 64 109 0.9 2.6 0.00 0.00 0.00 69
20260506231343 63 46 0.9 2.6 0.00 0.00 0.00 70
20260506230840 64 43 1.7 4.3 0.00 0.00 0.00 68
20260506230336 63 162 0.0 1.7 0.00 0.00 0.00 69
20260506225832 63 157 0.9 1.7 0.00 0.00 0.00 70
20260506225330 64 128 0.0 1.7 0.00 0.00 0.00 68
20260506224826 63 127 0.9 1.7 0.00 0.00 0.00 70
20260506224323 64 23 1.7 2.6 0.00 0.00 0.00 69
20260506223820 63 144 0.9 4.3 0.00 0.00 0.00 70
20260506223315 62 25 1.7 5.2 0.00 0.00 0.00 71
20260506222813 62 44 2.6 6.1 0.00 0.00 0.00 71
20260506222308 62 58 0.9 7.0 0.00 0.00 0.00 71
20260506221806 62 121 2.6 4.3 0.00 0.00 0.00 71
20260506221303 63 4 2.6 2.6 0.00 0.00 0.00 69
20260506220801 62 46 2.6 4.3 0.00 0.00 0.00 72
20260506220255 64 270 0.0 1.7 0.00 0.00 0.00 68
20260506215752 64 175 1.7 2.6 0.00 0.00 0.00 69
20260506215248 63 177 0.9 2.6 0.00 0.00 0.00 69
20260506214744 62 62 0.0 2.6 0.00 0.00 0.00 70
20260506214242 62 168 0.9 0.9 0.00 0.00 0.00 71
20260506213741 62 32 1.7 1.7 0.00 0.00 0.00 70
20260506213237 64 35 1.7 2.6 0.00 0.00 0.00 68
20260506212735 64 27 0.9 4.3 0.00 0.00 0.00 69
20260506212230 64 17 2.6 5.2 0.00 0.00 0.00 68
20260506211725 64 346 2.6 4.3 0.00 0.00 0.00 69
20260506211222 66 56 0.9 2.6 0.00 0.00 0.00 64
20260506210719 65 16 1.7 4.3 0.00 0.00 0.00 68
20260506210216 64 167 0.9 1.7 0.00 0.00 0.00 68
20260506205713 64 151 0.0 2.6 0.00 0.00 0.00 68
20260506205208 65 136 0.0 1.7 0.00 0.00 0.00 66
20260506204706 66 38 1.7 2.6 0.00 0.00 0.00 66
20260506204203 66 167 0.0 5.2 0.00 0.00 0.00 66
20260506203701 64 150 0.0 1.7 0.00 0.00 0.00 66
20260506203157 66 32 2.6 5.2 0.00 0.00 0.00 66
20260506202655 65 130 3.5 4.3 0.00 0.00 0.00 66
20260506202150 64 77 0.9 0.9 0.00 0.00 0.00 66
20260506201648 64 156 0.9 4.3 0.00 0.00 0.00 67
20260506201144 62 138 0.9 4.3 0.00 0.00 0.00 68
20260506200641 64 150 0.9 2.6 0.00 0.00 0.00 68
20260506200138 64 127 0.9 2.6 0.00 0.00 0.00 66
20260506195634 63 181 1.7 2.6 0.00 0.00 0.00 70
20260506195130 66 138 4.3 6.1 0.00 0.00 0.00 67
20260506194629 65 152 1.7 4.3 0.00 0.00 0.00 67
20260506194124 63 159 0.9 1.7 0.00 0.00 0.00 69
20260506193622 63 153 0.9 2.6 0.00 0.00 0.00 70
20260506193119 64 65 2.6 6.1 0.00 0.00 0.00 68
20260506192616 63 18 1.7 2.6 0.00 0.00 0.00 69
20260506192112 62 51 2.6 4.3 0.00 0.00 0.00 71
20260506191609 61 195 0.9 5.2 0.00 0.00 0.00 73
20260506191104 62 32 2.6 5.2 0.00 0.00 0.00 72
20260506190602 61 104 0.9 4.3 0.00 0.00 0.00 74
20260506190059 62 124 0.9 0.9 0.00 0.00 0.00 72
20260506185556 63 157 0.0 1.7 0.00 0.00 0.00 71
20260506185053 62 43 1.7 4.3 0.00 0.00 0.00 71
20260506184550 62 174 0.9 2.6 0.00 0.00 0.00 71
20260506184047 62 351 1.7 4.3 0.00 0.00 0.00 71
20260506183543 61 23 2.6 6.1 0.00 0.00 0.00 73
20260506183040 65 67 0.9 1.7 0.00 0.00 0.00 66
20260506182537 64 172 0.0 1.7 0.00 0.00 0.00 67
20260506182034 65 150 2.6 5.2 0.00 0.00 0.00 67
20260506181532 64 90 1.7 2.6 0.00 0.00 0.00 67
20260506181029 65 131 0.0 4.3 0.00 0.00 0.00 67
20260506180525 66 117 0.0 1.7 0.00 0.00 0.00 66
20260506180022 65 163 0.0 0.9 0.00 0.00 0.00 65
20260506175519 64 52 0.0 0.9 0.00 0.00 0.00 67
20260506175015 64 156 0.0 0.9 0.00 0.00 0.00 68
20260506174514 62 18 0.9 1.7 0.00 0.00 0.00 71
20260506174009 64 285 1.7 2.6 0.00 0.00 0.00 70
20260506173507 64 153 1.7 1.7 0.00 0.00 0.00 69
20260506173004 61 176 0.9 2.6 0.00 0.00 0.00 71
20260506172501 62 147 1.7 2.6 0.00 0.00 0.00 72
20260506171957 62 164 0.0 0.9 0.00 0.00 0.00 70
20260506171455 60 174 1.7 2.6 0.00 0.00 0.00 74
20260506170953 60 242 0.9 0.9 0.00 0.00 0.00 74
20260506170449 61 167 0.9 2.6 0.00 0.00 0.00 74
20260506165947 61 168 0.0 0.9 0.00 0.00 0.00 72
20260506165446 60 163 0.0 0.9 0.00 0.00 0.00 74
20260506164941 60 169 0.0 1.7 0.00 0.00 0.00 76
20260506164438 60 213 2.6 2.6 0.00 0.00 0.00 73
20260506163936 59 172 1.7 4.3 0.00 0.00 0.00 76
20260506163431 60 188 0.0 1.7 0.00 0.00 0.00 74
20260506162926 59 181 0.9 1.7 0.00 0.00 0.00 75
20260506162424 59 150 1.7 4.3 0.00 0.00 0.00 77
20260506161921 58 106 0.0 1.7 0.00 0.00 0.00 77
20260506161419 58 156 0.9 1.7 0.00 0.00 0.00 77
20260506160911 57 170 0.9 2.6 0.00 0.00 0.00 79
20260506160408 57 151 0.9 2.6 0.00 0.00 0.00 79
20260506155906 58 189 0.9 4.3 0.00 0.00 0.00 79
20260506155402 57 136 0.9 1.7 0.00 0.00 0.00 79
20260506153525 57 225 1.7 2.6 0.00 0.00 0.00 81
20260506153022 57 159 0.0 0.9 0.00 0.00 0.00 81
20260506152519 56 208 0.9 2.6 0.00 0.00 0.00 81
20260506152018 56 166 0.0 1.7 0.00 0.00 0.00 82
20260506151515 56 164 0.0 0.9 0.00 0.00 0.00 82
20260506151012 55 167 0.9 4.3 0.00 0.00 0.00 83
20260506150507 55 166 1.7 2.6 0.00 0.00 0.00 83
20260506150005 55 205 0.9 1.7 0.00 0.00 0.00 84
20260506145501 55 200 0.9 1.7 0.00 0.00 0.00 85
20260506144959 55 158 0.9 1.7 0.00 0.00 0.00 86
20260506144455 54 183 0.9 1.7 0.00 0.00 0.00 87
20260506143953 54 262 0.9 1.7 0.00 0.00 0.00 87
20260506143450 53 129 0.0 0.9 0.00 0.00 0.00 90
20260506142949 52 179 0.0 0.9 0.00 0.00 0.00 92
20260506142446 51 149 0.0 1.7 0.00 0.00 0.00 94
20260506141944 50 182 0.0 0.0 0.00 0.00 0.00 95
20260506141441 50 168 0.0 0.0 0.00 0.00 0.00 96
20260506140940 50 167 0.0 0.0 0.00 0.00 0.00 96
20260506140436 50 164 0.0 0.0 0.00 0.00 0.00 97
20260506135933 50 161 0.0 0.0 0.00 0.00 0.00 98
20260506135431 49 189 0.0 0.0 0.00 0.00 0.00 98
20260506134926 50 154 0.0 0.0 0.00 0.00 0.00 98
20260506134423 49 167 0.0 0.0 0.00 0.00 0.00 99
20260506133920 49 169 0.0 0.0 0.00 0.00 0.00 99
20260506133417 49 168 0.0 0.0 0.00 0.00 0.00 99
20260506132913 48 143 0.0 0.0 0.00 0.00 0.00 99
20260506132411 48 178 0.0 0.0 0.00 0.00 0.00 99
20260506131908 48 170 0.0 0.0 0.00 0.00 0.00 98
20260506131404 48 190 0.0 0.0 0.00 0.00 0.00 98
20260506130901 48 173 0.0 0.0 0.00 0.00 0.00 98
20260506130358 48 168 0.0 0.0 0.00 0.00 0.00 98
20260506125856 48 186 0.0 0.0 0.00 0.00 0.00 98
20260506125354 48 169 0.0 0.0 0.00 0.00 0.00 97
20260506124852 48 188 0.0 0.0 0.00 0.00 0.00 97
20260506124349 49 178 0.0 0.0 0.00 0.00 0.00 97
20260506123846 49 169 0.0 0.0 0.00 0.00 0.00 97
20260506123345 49 152 0.0 0.0 0.00 0.00 0.00 97
20260506122842 49 169 0.0 0.0 0.00 0.00 0.00 97
20260506122338 49 178 0.0 0.0 0.00 0.00 0.00 97
20260506121837 50 194 0.0 0.0 0.00 0.00 0.00 97
20260506121334 50 170 0.0 0.0 0.00 0.00 0.00 98
20260506120831 49 173 0.0 0.0 0.00 0.00 0.00 98
20260506120328 49 149 0.0 0.0 0.00 0.00 0.00 98
20260506115825 48 165 0.0 0.0 0.00 0.00 0.00 98
20260506115324 48 171 0.0 0.0 0.00 0.00 0.00 97
20260506114821 48 174 0.0 0.0 0.00 0.00 0.00 97
20260506114319 48 172 0.0 0.0 0.00 0.00 0.00 97
20260506113817 49 169 0.0 0.0 0.00 0.00 0.00 97
20260506113314 49 166 0.0 0.0 0.00 0.00 0.00 97
20260506112811 49 169 0.0 0.0 0.00 0.00 0.00 97
20260506112308 49 165 0.0 0.0 0.00 0.00 0.00 97
20260506111805 49 166 0.0 0.0 0.00 0.00 0.00 97
20260506111304 49 159 0.0 0.0 0.00 0.00 0.00 97
20260506110801 49 166 0.0 0.0 0.00 0.00 0.00 97
20260506110258 49 162 0.0 0.0 0.00 0.00 0.00 97
20260506105754 49 169 0.0 0.0 0.00 0.00 0.00 97
20260506105251 49 160 0.0 0.0 0.00 0.00 0.00 97
20260506104749 49 137 0.0 0.0 0.00 0.00 0.00 97
20260506104247 49 189 0.0 0.0 0.00 0.00 0.00 97
20260506103744 50 171 0.0 0.0 0.00 0.00 0.00 97
20260506103241 50 178 0.0 0.0 0.00 0.00 0.00 97
20260506102738 50 170 0.0 0.0 0.00 0.00 0.00 97
20260506102236 50 171 0.0 0.0 0.00 0.00 0.00 97
20260506101733 50 175 0.0 0.0 0.00 0.00 0.00 97
20260506101229 50 170 0.0 0.0 0.00 0.00 0.00 97
20260506100727 50 183 0.0 0.0 0.00 0.00 0.00 96
20260506100226 50 172 0.0 0.0 0.00 0.00 0.00 97
20260506095724 50 172 0.0 0.0 0.00 0.00 0.00 96
20260506095220 50 171 0.0 0.0 0.00 0.00 0.00 96
20260506094717 50 172 0.0 0.0 0.00 0.00 0.00 96
20260506094215 50 172 0.0 0.0 0.00 0.00 0.00 96
20260506093714 50 169 0.0 0.0 0.00 0.00 0.00 96
20260506093210 50 173 0.0 0.0 0.00 0.00 0.00 96
20260506092708 50 174 0.0 0.0 0.00 0.00 0.00 95
20260506092205 51 170 0.0 0.0 0.00 0.00 0.00 95
20260506091703 51 171 0.0 0.0 0.00 0.00 0.00 95
20260506091200 51 170 0.0 0.0 0.00 0.00 0.00 95
20260506090658 51 171 0.0 0.0 0.00 0.00 0.00 95
20260506090154 51 171 0.0 0.0 0.00 0.00 0.00 95
20260506085651 51 169 0.0 0.0 0.00 0.00 0.00 95
20260506085147 51 179 0.0 0.0 0.00 0.00 0.00 95
20260506084644 51 172 0.0 0.0 0.00 0.00 0.00 94
20260506084141 51 172 0.0 0.0 0.00 0.00 0.00 94
20260506083638 51 177 0.0 0.0 0.00 0.00 0.00 94
20260506083136 51 167 0.0 0.0 0.00 0.00 0.00 94
20260506082632 52 177 0.0 0.0 0.00 0.00 0.00 93
20260506082128 52 199 0.0 0.0 0.00 0.00 0.00 92
20260506081626 52 171 0.0 0.0 0.00 0.00 0.00 91
20260506081123 53 175 0.0 0.0 0.00 0.00 0.00 90
20260506080621 53 169 0.0 0.0 0.00 0.00 0.00 90
20260506080117 53 164 0.0 0.0 0.00 0.00 0.00 90
20260506073101 54 152 0.0 0.0 0.00 0.00 0.00 90
20260506072558 53 167 0.0 0.0 0.00 0.00 0.00 91
20260506072056 53 159 0.0 0.0 0.00 0.00 0.00 90
20260506071553 54 168 0.0 0.0 0.00 0.00 0.00 90
20260506071051 53 172 0.0 0.0 0.00 0.00 0.00 90
20260506070548 53 168 0.0 0.0 0.00 0.00 0.00 89